| time (UTC) | temp F | wind direction | speed MPH | gust MPH | rain 1hr in | rain 24hr in | rain mn in | humidity % | barometer mb |
| 20260507194004 | 57 | 203 | 3.0 | 6.0 | 0.00 | 0.13 | 0.05 | 75 | 1013.0 |
| 20260507193504 | 56 | 232 | 1.0 | 5.0 | 0.00 | 0.13 | 0.05 | 76 | 1013.0 |
| 20260507193004 | 56 | 205 | 0.0 | 5.0 | 0.00 | 0.13 | 0.05 | 74 | 1013.2 |
| 20260507192503 | 56 | 34 | 0.0 | 5.0 | 0.00 | 0.13 | 0.05 | 75 | 1013.2 |
| 20260507191504 | 56 | 244 | 6.0 | 10.0 | 0.00 | 0.13 | 0.05 | 74 | 1013.4 |
| 20260507191004 | 56 | 187 | 5.0 | 7.0 | 0.00 | 0.13 | 0.05 | 76 | 1013.3 |
| 20260507190504 | 56 | 181 | 0.0 | 2.0 | 0.00 | 0.13 | 0.05 | 77 | 1013.3 |
| 20260507190005 | 56 | 165 | 0.0 | 5.0 | 0.00 | 0.13 | 0.05 | 78 | 1013.4 |
| 20260507185504 | 56 | 136 | 0.0 | 2.0 | 0.01 | 0.13 | 0.05 | 81 | 1013.5 |
| 20260507185004 | 55 | 126 | 0.0 | 0.0 | 0.01 | 0.13 | 0.05 | 81 | 1013.6 |
| 20260507184504 | 55 | 126 | 0.0 | 0.0 | 0.01 | 0.13 | 0.05 | 80 | 1013.6 |
| 20260507183504 | 56 | 126 | 0.0 | 0.0 | 0.01 | 0.13 | 0.05 | 80 | 1013.6 |
| 20260507183003 | 55 | 126 | 0.0 | 0.0 | 0.01 | 0.13 | 0.05 | 81 | 1013.7 |
| 20260507182502 | 55 | 151 | 1.0 | 1.0 | 0.01 | 0.13 | 0.05 | 80 | 1013.6 |
| 20260507182002 | 55 | 123 | 0.0 | 0.0 | 0.01 | 0.13 | 0.05 | 81 | 1013.6 |
| 20260507181502 | 55 | 123 | 0.0 | 0.0 | 0.01 | 0.13 | 0.05 | 81 | 1013.5 |
| 20260507181002 | 55 | 123 | 0.0 | 1.0 | 0.01 | 0.13 | 0.05 | 81 | 1013.5 |
| 20260507180502 | 55 | 167 | 1.0 | 2.0 | 0.04 | 0.13 | 0.05 | 80 | 1013.6 |
| 20260507180002 | 55 | 185 | 0.0 | 0.0 | 0.05 | 0.13 | 0.05 | 81 | 1013.6 |
| 20260507175503 | 55 | 185 | 0.0 | 0.0 | 0.04 | 0.12 | 0.04 | 82 | 1013.6 |
| 20260507175003 | 55 | 182 | 1.0 | 3.0 | 0.04 | 0.12 | 0.04 | 83 | 1013.7 |
| 20260507174003 | 55 | 297 | 0.0 | 3.0 | 0.04 | 0.12 | 0.04 | 81 | 1013.7 |
| 20260507173503 | 54 | 255 | 0.0 | 3.0 | 0.04 | 0.12 | 0.04 | 82 | 1013.7 |
| 20260507172503 | 54 | 275 | 2.0 | 3.0 | 0.04 | 0.12 | 0.04 | 81 | 1013.8 |
| 20260507171503 | 55 | 62 | 0.0 | 0.0 | 0.04 | 0.12 | 0.04 | 80 | 1013.6 |
| 20260507171002 | 55 | 62 | 1.0 | 7.0 | 0.04 | 0.12 | 0.04 | 78 | 1013.8 |
| 20260507170002 | 55 | 61 | 5.0 | 9.0 | 0.00 | 0.08 | 0.00 | 76 | 1013.7 |
| 20260507165503 | 55 | 105 | 4.0 | 6.0 | 0.00 | 0.08 | 0.00 | 75 | 1013.8 |
| 20260507165003 | 55 | 324 | 2.0 | 7.0 | 0.00 | 0.08 | 0.00 | 75 | 1013.8 |
| 20260507164502 | 55 | 113 | 3.0 | 7.0 | 0.00 | 0.09 | 0.00 | 74 | 1013.8 |
| 20260507164003 | 55 | 32 | 3.0 | 6.0 | 0.00 | 0.09 | 0.00 | 74 | 1013.8 |
| 20260507163503 | 55 | 41 | 2.0 | 6.0 | 0.00 | 0.09 | 0.00 | 74 | 1013.6 |
| 20260507162502 | 55 | 49 | 0.0 | 7.0 | 0.00 | 0.09 | 0.00 | 74 | 1013.8 |
| 20260507162002 | 56 | 81 | 1.0 | 8.0 | 0.00 | 0.09 | 0.00 | 75 | 1013.7 |
| 20260507161503 | 56 | 90 | 1.0 | 5.0 | 0.00 | 0.09 | 0.00 | 74 | 1013.6 |
| 20260507161003 | 56 | 259 | 2.0 | 5.0 | 0.00 | 0.09 | 0.00 | 75 | 1013.7 |
| 20260507160003 | 56 | 17 | 3.0 | 6.0 | 0.00 | 0.09 | 0.00 | 75 | 1013.8 |
| 20260507155503 | 56 | 151 | 4.0 | 9.0 | 0.00 | 0.09 | 0.00 | 75 | 1013.8 |
| 20260507155003 | 56 | 59 | 5.0 | 7.0 | 0.00 | 0.09 | 0.00 | 75 | 1013.9 |
| 20260507154503 | 56 | 81 | 3.0 | 5.0 | 0.00 | 0.09 | 0.00 | 76 | 1014.0 |
| 20260507154002 | 56 | 75 | 2.0 | 3.0 | 0.00 | 0.09 | 0.00 | 77 | 1014.1 |
| 20260507153502 | 56 | 28 | 1.0 | 5.0 | 0.00 | 0.09 | 0.00 | 76 | 1014.1 |
| 20260507153002 | 56 | 133 | 0.0 | 0.0 | 0.00 | 0.09 | 0.00 | 76 | 1014.1 |
| 20260507152502 | 56 | 133 | 1.0 | 5.0 | 0.00 | 0.09 | 0.00 | 76 | 1014.1 |
| 20260507152003 | 56 | 50 | 6.0 | 7.0 | 0.00 | 0.09 | 0.00 | 76 | 1014.0 |
| 20260507151502 | 56 | 18 | 1.0 | 6.0 | 0.00 | 0.09 | 0.00 | 77 | 1014.0 |
| 20260507151002 | 56 | 90 | 3.0 | 7.0 | 0.00 | 0.09 | 0.00 | 77 | 1014.0 |
| 20260507150003 | 56 | 113 | 3.0 | 9.0 | 0.00 | 0.09 | 0.00 | 76 | 1014.0 |
| 20260507145503 | 57 | 116 | 3.0 | 6.0 | 0.00 | 0.09 | 0.00 | 77 | 1013.9 |
| 20260507145003 | 57 | 58 | 3.0 | 6.0 | 0.00 | 0.09 | 0.00 | 76 | 1013.8 |
| 20260507144002 | 57 | 68 | 1.0 | 3.0 | 0.00 | 0.09 | 0.00 | 76 | 1013.8 |
| 20260507143502 | 57 | 178 | 0.0 | 3.0 | 0.00 | 0.09 | 0.00 | 77 | 1013.7 |
| 20260507142503 | 57 | 274 | 2.0 | 5.0 | 0.00 | 0.09 | 0.00 | 77 | 1013.7 |
| 20260507142003 | 57 | 246 | 3.0 | 5.0 | 0.00 | 0.09 | 0.00 | 78 | 1013.7 |
| 20260507141503 | 58 | 219 | 0.0 | 1.0 | 0.00 | 0.09 | 0.00 | 78 | 1013.7 |
| 20260507141003 | 58 | 216 | 1.0 | 6.0 | 0.00 | 0.09 | 0.00 | 77 | 1013.9 |
| 20260507140503 | 58 | 155 | 2.0 | 5.0 | 0.00 | 0.09 | 0.00 | 77 | 1013.9 |
| 20260507140003 | 58 | 66 | 0.0 | 0.0 | 0.00 | 0.09 | 0.00 | 79 | 1013.5 |
| 20260507135502 | 58 | 66 | 0.0 | 0.0 | 0.00 | 0.09 | 0.00 | 79 | 1013.4 |
| 20260507135003 | 58 | 66 | 0.0 | 0.0 | 0.00 | 0.10 | 0.00 | 79 | 1013.5 |
| 20260507134003 | 58 | 66 | 0.0 | 0.0 | 0.00 | 0.10 | 0.00 | 78 | 1014.1 |
| 20260507133503 | 58 | 66 | 0.0 | 2.0 | 0.00 | 0.11 | 0.00 | 78 | 1014.1 |
| 20260507133003 | 58 | 286 | 2.0 | 3.0 | 0.00 | 0.11 | 0.00 | 79 | 1014.0 |
| 20260507132003 | 58 | 49 | 1.0 | 2.0 | 0.00 | 0.11 | 0.00 | 78 | 1014.0 |
| 20260507131502 | 58 | 234 | 3.0 | 7.0 | 0.00 | 0.11 | 0.00 | 79 | 1014.0 |
| 20260507131003 | 58 | 124 | 0.0 | 2.0 | 0.00 | 0.11 | 0.00 | 79 | 1014.2 |
| 20260507130503 | 58 | 181 | 2.0 | 6.0 | 0.00 | 0.11 | 0.00 | 79 | 1014.2 |
| 20260507125503 | 58 | 222 | 1.0 | 6.0 | 0.00 | 0.12 | 0.00 | 80 | 1013.8 |
| 20260507125003 | 58 | 130 | 0.0 | 3.0 | 0.00 | 0.12 | 0.00 | 79 | 1013.9 |
| 20260507124503 | 57 | 286 | 1.0 | 5.0 | 0.00 | 0.12 | 0.00 | 80 | 1014.0 |
| 20260507123003 | 57 | 304 | 2.0 | 6.0 | 0.00 | 0.12 | 0.00 | 80 | 1014.1 |
| 20260507122004 | 57 | 157 | 1.0 | 3.0 | 0.00 | 0.12 | 0.00 | 80 | 1014.0 |
| 20260507121503 | 57 | 272 | 1.0 | 6.0 | 0.00 | 0.12 | 0.00 | 80 | 1014.1 |
| 20260507120003 | 57 | 336 | 7.0 | 9.0 | 0.00 | 0.12 | 0.00 | 79 | 1014.1 |
| 20260507115503 | 57 | 310 | 3.0 | 6.0 | 0.00 | 0.12 | 0.00 | 80 | 1014.0 |
| 20260507114503 | 57 | 174 | 0.0 | 2.0 | 0.00 | 0.12 | 0.00 | 79 | 1013.9 |
| 20260507114003 | 57 | 7 | 1.0 | 6.0 | 0.00 | 0.12 | 0.00 | 78 | 1013.8 |
| 20260507113503 | 57 | 254 | 2.0 | 8.0 | 0.00 | 0.12 | 0.00 | 78 | 1013.8 |
| 20260507113003 | 57 | 355 | 1.0 | 2.0 | 0.00 | 0.12 | 0.00 | 79 | 1013.7 |
| 20260507112503 | 57 | 338 | 1.0 | 5.0 | 0.00 | 0.12 | 0.00 | 79 | 1013.5 |
| 20260507112003 | 57 | 1 | 0.0 | 1.0 | 0.00 | 0.12 | 0.00 | 79 | 1013.4 |
| 20260507111503 | 57 | 10 | 3.0 | 7.0 | 0.00 | 0.12 | 0.00 | 80 | 1013.5 |
| 20260507111003 | 57 | 50 | 2.0 | 5.0 | 0.00 | 0.12 | 0.00 | 81 | 1013.4 |
| 20260507110503 | 58 | 191 | 0.0 | 0.0 | 0.00 | 0.12 | 0.00 | 82 | 1013.3 |
| 20260507105503 | 57 | 191 | 0.0 | 0.0 | 0.00 | 0.12 | 0.00 | 82 | 1013.4 |
| 20260507105004 | 57 | 194 | 3.0 | 3.0 | 0.00 | 0.12 | 0.00 | 81 | 1013.4 |
| 20260507104503 | 57 | 263 | 3.0 | 7.0 | 0.00 | 0.12 | 0.00 | 82 | 1013.3 |
| 20260507104003 | 58 | 31 | 0.0 | 2.0 | 0.00 | 0.12 | 0.00 | 83 | 1013.2 |
| 20260507103503 | 58 | 13 | 2.0 | 5.0 | 0.00 | 0.12 | 0.00 | 82 | 1013.1 |
| 20260507103003 | 58 | 338 | 2.0 | 5.0 | 0.00 | 0.12 | 0.00 | 82 | 1013.1 |
| 20260507102503 | 58 | 63 | 3.0 | 5.0 | 0.00 | 0.12 | 0.00 | 82 | 1013.2 |
| 20260507102003 | 58 | 2 | 2.0 | 6.0 | 0.00 | 0.12 | 0.00 | 82 | 1013.1 |
| 20260507101503 | 58 | 291 | 0.0 | 1.0 | 0.00 | 0.12 | 0.00 | 82 | 1013.2 |
| 20260507101003 | 58 | 337 | 3.0 | 9.0 | 0.00 | 0.12 | 0.00 | 82 | 1013.3 |
| 20260507100503 | 58 | 334 | 0.0 | 2.0 | 0.00 | 0.12 | 0.00 | 82 | 1013.2 |
| 20260507100003 | 58 | 224 | 4.0 | 7.0 | 0.00 | 0.12 | 0.00 | 83 | 1013.1 |
| 20260507095004 | 58 | 47 | 1.0 | 5.0 | 0.00 | 0.12 | 0.00 | 83 | 1013.0 |
| 20260507094503 | 58 | 39 | 1.0 | 6.0 | 0.00 | 0.12 | 0.00 | 84 | 1013.3 |
| 20260507094003 | 58 | 182 | 1.0 | 5.0 | 0.00 | 0.12 | 0.00 | 84 | 1013.4 |
| 20260507093503 | 58 | 39 | 3.0 | 7.0 | 0.00 | 0.12 | 0.00 | 84 | 1012.8 |
| 20260507093003 | 58 | 6 | 8.0 | 8.0 | 0.00 | 0.12 | 0.00 | 84 | 1013.0 |
| 20260507092004 | 59 | 237 | 0.0 | 0.0 | 0.00 | 0.12 | 0.00 | 85 | 1013.4 |
| 20260507091503 | 59 | 237 | 0.0 | 0.0 | 0.00 | 0.12 | 0.00 | 85 | 1013.2 |
| 20260507091003 | 59 | 237 | 0.0 | 0.0 | 0.00 | 0.12 | 0.00 | 84 | 1013.1 |
| 20260507090004 | 59 | 237 | 0.0 | 0.0 | 0.00 | 0.12 | 0.00 | 83 | 1012.4 |
| 20260507085503 | 59 | 237 | 0.0 | 0.0 | 0.00 | 0.12 | 0.00 | 83 | 1012.4 |
| 20260507085003 | 59 | 237 | 1.0 | 3.0 | 0.00 | 0.12 | 0.00 | 82 | 1012.7 |
| 20260507084503 | 59 | 257 | 0.0 | 0.0 | 0.00 | 0.12 | 0.00 | 83 | 1012.6 |
| 20260507084003 | 59 | 257 | 0.0 | 3.0 | 0.00 | 0.12 | 0.00 | 84 | 1013.0 |
| 20260507083503 | 59 | 306 | 1.0 | 5.0 | 0.00 | 0.12 | 0.00 | 85 | 1013.0 |
| 20260507082503 | 59 | 253 | 1.0 | 3.0 | 0.00 | 0.12 | 0.00 | 86 | 1013.0 |
| 20260507082003 | 60 | 231 | 3.0 | 3.0 | 0.00 | 0.12 | 0.00 | 85 | 1013.0 |
| 20260507081503 | 60 | 233 | 0.0 | 2.0 | 0.00 | 0.12 | 0.00 | 86 | 1013.0 |
| 20260507081003 | 60 | 270 | 1.0 | 2.0 | 0.00 | 0.12 | 0.00 | 85 | 1013.0 |
| 20260507080503 | 60 | 284 | 0.0 | 2.0 | 0.00 | 0.12 | 0.00 | 86 | 1013.0 |
| 20260507080003 | 60 | 295 | 4.0 | 3.0 | 0.00 | 0.12 | 0.00 | 86 | 1013.3 |
| 20260507074504 | 60 | 274 | 0.0 | 0.0 | 0.00 | 0.12 | 0.00 | 85 | 1013.2 |
| 20260507074004 | 60 | 274 | 0.0 | 0.0 | 0.00 | 0.12 | 0.00 | 85 | 1013.3 |
| 20260507073503 | 60 | 274 | 0.0 | 0.0 | 0.00 | 0.12 | 0.00 | 85 | 1013.3 |
| 20260507073003 | 60 | 274 | 0.0 | 0.0 | 0.00 | 0.12 | 0.00 | 85 | 1013.1 |
| 20260507072003 | 60 | 274 | 0.0 | 0.0 | 0.00 | 0.12 | 0.00 | 85 | 1013.2 |
| 20260507071504 | 60 | 274 | 0.0 | 0.0 | 0.00 | 0.12 | 0.00 | 84 | 1013.1 |
| 20260507071004 | 60 | 274 | 1.0 | 5.0 | 0.00 | 0.12 | 0.00 | 83 | 1012.8 |
| 20260507070005 | 61 | 291 | 0.0 | 6.0 | 0.00 | 0.12 | 0.00 | 85 | 1012.8 |
| 20260507065503 | 61 | 249 | 1.0 | 5.0 | 0.00 | 0.12 | 0.00 | 86 | 1013.2 |
| 20260507065003 | 60 | 326 | 0.0 | 3.0 | 0.00 | 0.12 | 0.00 | 87 | 1012.7 |
| 20260507064503 | 61 | 220 | 3.0 | 8.0 | 0.00 | 0.12 | 0.00 | 87 | 1012.8 |
| 20260507063503 | 60 | 359 | 4.0 | 12.0 | 0.00 | 0.12 | 0.00 | 86 | 1013.1 |
| 20260507063003 | 60 | 18 | 5.0 | 10.0 | 0.00 | 0.12 | 0.00 | 86 | 1013.2 |
| 20260507062503 | 60 | 14 | 0.0 | 0.0 | 0.00 | 0.12 | 0.00 | 88 | 1012.8 |
| 20260507062003 | 60 | 17 | 1.0 | 2.0 | 0.00 | 0.12 | 0.00 | 88 | 1012.7 |
| 20260507061503 | 60 | 288 | 0.0 | 0.0 | 0.00 | 0.12 | 0.00 | 88 | 1012.8 |
| 20260507061004 | 60 | 288 | 0.0 | 2.0 | 0.00 | 0.12 | 0.00 | 89 | 1012.6 |
| 20260507060503 | 60 | 7 | 3.0 | 7.0 | 0.00 | 0.12 | 0.00 | 89 | 1012.5 |
| 20260507060003 | 60 | 41 | 6.0 | 8.0 | 0.00 | 0.12 | 0.00 | 89 | 1012.7 |
| 20260507055503 | 61 | 30 | 4.0 | 7.0 | 0.00 | 0.12 | 0.00 | 89 | 1013.2 |
| 20260507055004 | 60 | 48 | 0.0 | 0.0 | 0.00 | 0.12 | 0.00 | 89 | 1013.2 |
| 20260507054503 | 60 | 48 | 0.0 | 2.0 | 0.00 | 0.12 | 0.00 | 89 | 1013.4 |
| 20260507054003 | 60 | 64 | 2.0 | 3.0 | 0.00 | 0.12 | 0.00 | 89 | 1013.2 |
| 20260507053004 | 60 | 63 | 7.0 | 10.0 | 0.00 | 0.12 | 0.00 | 87 | 1013.2 |
| 20260507052503 | 61 | 33 | 10.0 | 10.0 | 0.00 | 0.12 | 0.00 | 86 | 1013.4 |
| 20260507052003 | 61 | 195 | 0.0 | 0.0 | 0.00 | 0.12 | 0.00 | 87 | 1013.4 |
| 20260507051503 | 61 | 195 | 0.0 | 0.0 | 0.00 | 0.12 | 0.00 | 87 | 1013.2 |
| 20260507051003 | 61 | 195 | 0.0 | 0.0 | 0.00 | 0.12 | 0.00 | 87 | 1013.3 |
| 20260507050503 | 61 | 195 | 0.0 | 0.0 | 0.00 | 0.12 | 0.00 | 87 | 1013.1 |
| 20260507050003 | 61 | 195 | 0.0 | 2.0 | 0.00 | 0.12 | 0.00 | 86 | 1013.2 |
| 20260507045504 | 61 | 223 | 0.0 | 0.0 | 0.00 | 0.12 | 0.00 | 86 | 1013.1 |
| 20260507045004 | 61 | 223 | 0.0 | 0.0 | 0.00 | 0.12 | 0.00 | 86 | 1012.8 |
| 20260507044503 | 61 | 223 | 0.0 | 0.0 | 0.00 | 0.12 | 0.00 | 86 | 1012.8 |
| 20260507044004 | 61 | 223 | 0.0 | 2.0 | 0.00 | 0.12 | 0.00 | 86 | 1012.8 |
| 20260507043504 | 61 | 195 | 0.0 | 2.0 | 0.00 | 0.12 | 0.00 | 86 | 1012.7 |
| 20260507042503 | 61 | 295 | 0.0 | 0.0 | 0.00 | 0.12 | 0.00 | 86 | 1013.0 |
| 20260507042003 | 61 | 295 | 0.0 | 0.0 | 0.00 | 0.12 | 0.00 | 86 | 1013.1 |
| 20260507041504 | 62 | 297 | 1.0 | 2.0 | 0.01 | 0.12 | 0.00 | 86 | 1013.2 |
| 20260507041004 | 62 | 325 | 0.0 | 3.0 | 0.01 | 0.12 | 0.00 | 86 | 1013.1 |
| 20260507040004 | 62 | 234 | 0.0 | 5.0 | 0.01 | 0.12 | 0.00 | 86 | 1013.2 |
| 20260507035504 | 62 | 44 | 1.0 | 2.0 | 0.01 | 0.12 | 0.12 | 86 | 1013.3 |
| 20260507035003 | 62 | 282 | 1.0 | 3.0 | 0.01 | 0.12 | 0.12 | 86 | 1013.1 |
| 20260507034503 | 62 | 124 | 1.0 | 6.0 | 0.01 | 0.12 | 0.12 | 86 | 1013.4 |
| 20260507034004 | 62 | 17 | 0.0 | 1.0 | 0.01 | 0.12 | 0.12 | 86 | 1013.5 |
| 20260507033503 | 62 | 17 | 0.0 | 0.0 | 0.01 | 0.12 | 0.12 | 86 | 1013.5 |
| 20260507033004 | 62 | 17 | 0.0 | 2.0 | 0.03 | 0.12 | 0.12 | 86 | 1013.7 |
| 20260507032503 | 62 | 154 | 1.0 | 6.0 | 0.05 | 0.12 | 0.12 | 86 | 1014.1 |
| 20260507032003 | 62 | 81 | 0.0 | 0.0 | 0.06 | 0.12 | 0.12 | 85 | 1014.4 |
| 20260507031504 | 62 | 81 | 0.0 | 0.0 | 0.05 | 0.11 | 0.11 | 84 | 1014.5 |
| 20260507031004 | 62 | 81 | 0.0 | 2.0 | 0.06 | 0.11 | 0.11 | 84 | 1014.4 |
| 20260507030503 | 63 | 40 | 0.0 | 5.0 | 0.06 | 0.11 | 0.11 | 84 | 1014.4 |
| 20260507030003 | 63 | 70 | 5.0 | 8.0 | 0.06 | 0.11 | 0.11 | 84 | 1014.4 |
| 20260507025004 | 63 | 335 | 2.0 | 3.0 | 0.06 | 0.11 | 0.11 | 83 | 1014.1 |
| 20260507024503 | 63 | 272 | 3.0 | 6.0 | 0.06 | 0.11 | 0.11 | 83 | 1014.0 |
| 20260507024004 | 63 | 243 | 7.0 | 8.0 | 0.06 | 0.11 | 0.11 | 82 | 1013.8 |
| 20260507023004 | 64 | 169 | 2.0 | 6.0 | 0.04 | 0.09 | 0.09 | 80 | 1014.1 |
| 20260507022503 | 64 | 291 | 2.0 | 6.0 | 0.02 | 0.07 | 0.07 | 80 | 1014.6 |
| 20260507021504 | 64 | 249 | 6.0 | 8.0 | 0.01 | 0.06 | 0.06 | 77 | 1014.1 |
| 20260507021003 | 65 | 235 | 6.0 | 7.0 | 0.00 | 0.05 | 0.05 | 76 | 1013.9 |
| 20260507020503 | 65 | 231 | 2.0 | 8.0 | 0.00 | 0.05 | 0.05 | 75 | 1013.5 |
| 20260507015504 | 65 | 290 | 2.0 | 10.0 | 0.00 | 0.05 | 0.05 | 73 | 1013.6 |
| 20260507014503 | 65 | 193 | 6.0 | 7.0 | 0.00 | 0.05 | 0.05 | 71 | 1013.4 |
| 20260507014004 | 65 | 224 | 7.0 | 9.0 | 0.00 | 0.05 | 0.05 | 70 | 1013.2 |
| 20260507013503 | 65 | 243 | 13.0 | 18.0 | 0.00 | 0.05 | 0.05 | 71 | 1013.2 |
| 20260507013003 | 65 | 200 | 5.0 | 13.0 | 0.00 | 0.05 | 0.05 | 70 | 1013.0 |
| 20260507012503 | 65 | 223 | 7.0 | 18.0 | 0.00 | 0.05 | 0.05 | 74 | 1013.0 |
| 20260507012004 | 64 | 161 | 5.0 | 8.0 | 0.00 | 0.05 | 0.05 | 77 | 1013.1 |
| 20260507010504 | 65 | 329 | 0.0 | 1.0 | 0.00 | 0.05 | 0.05 | 75 | 1013.4 |
| 20260507010004 | 65 | 326 | 0.0 | 0.0 | 0.00 | 0.05 | 0.05 | 75 | 1013.4 |
| 20260507005503 | 65 | 346 | 0.0 | 2.0 | 0.00 | 0.05 | 0.05 | 75 | 1013.4 |
| 20260507005003 | 65 | 315 | 0.0 | 2.0 | 0.00 | 0.05 | 0.05 | 74 | 1013.4 |
| 20260507004503 | 65 | 304 | 0.0 | 0.0 | 0.00 | 0.05 | 0.05 | 74 | 1013.2 |
| 20260507004003 | 65 | 306 | 2.0 | 3.0 | 0.00 | 0.05 | 0.05 | 74 | 1013.3 |
| 20260507003004 | 66 | 220 | 0.0 | 2.0 | 0.00 | 0.05 | 0.05 | 73 | 1012.8 |
| 20260507002504 | 66 | 254 | 2.0 | 3.0 | 0.00 | 0.05 | 0.05 | 73 | 1013.0 |
| 20260507002004 | 66 | 307 | 2.0 | 5.0 | 0.00 | 0.05 | 0.05 | 73 | 1012.8 |
| 20260507001503 | 66 | 126 | 2.0 | 6.0 | 0.00 | 0.05 | 0.05 | 72 | 1013.1 |
| 20260507001004 | 66 | 305 | 3.0 | 3.0 | 0.00 | 0.05 | 0.05 | 72 | 1012.8 |
| 20260507000503 | 66 | 299 | 0.0 | 1.0 | 0.00 | 0.05 | 0.05 | 71 | 1012.5 |
| 20260507000004 | 67 | 302 | 1.0 | 3.0 | 0.00 | 0.05 | 0.05 | 71 | 1012.6 |
| 20260506235504 | 67 | 244 | 0.0 | 0.0 | 0.00 | 0.05 | 0.05 | 71 | 1012.5 |
| 20260506235004 | 67 | 244 | 1.0 | 3.0 | 0.00 | 0.05 | 0.05 | 70 | 1012.6 |
| 20260506234004 | 67 | 261 | 4.0 | 5.0 | 0.00 | 0.05 | 0.05 | 70 | 1013.0 |
| 20260506233503 | 67 | 350 | 1.0 | 7.0 | 0.00 | 0.05 | 0.05 | 70 | 1013.0 |
| 20260506233004 | 67 | 13 | 1.0 | 6.0 | 0.00 | 0.05 | 0.05 | 70 | 1013.1 |
| 20260506232503 | 67 | 71 | 3.0 | 5.0 | 0.00 | 0.05 | 0.05 | 70 | 1013.1 |
| 20260506232004 | 68 | 42 | 3.0 | 5.0 | 0.00 | 0.05 | 0.05 | 69 | 1013.0 |
| 20260506231003 | 68 | 234 | 1.0 | 10.0 | 0.00 | 0.05 | 0.05 | 64 | 1012.5 |
| 20260506230503 | 69 | 265 | 6.0 | 17.0 | 0.00 | 0.05 | 0.05 | 64 | 1012.3 |
| 20260506230004 | 69 | 39 | 5.0 | 8.0 | 0.00 | 0.05 | 0.05 | 62 | 1012.4 |
| 20260506225503 | 69 | 279 | 7.0 | 10.0 | 0.00 | 0.05 | 0.05 | 62 | 1012.7 |
| 20260506225003 | 69 | 330 | 5.0 | 15.0 | 0.00 | 0.05 | 0.05 | 62 | 1012.8 |
| 20260506224504 | 69 | 218 | 10.0 | 15.0 | 0.00 | 0.05 | 0.05 | 62 | 1013.0 |
| 20260506224003 | 69 | 262 | 1.0 | 15.0 | 0.00 | 0.05 | 0.05 | 62 | 1013.2 |
| 20260506223503 | 69 | 193 | 7.0 | 13.0 | 0.00 | 0.05 | 0.05 | 61 | 1013.2 |
| 20260506223004 | 69 | 173 | 3.0 | 8.0 | 0.00 | 0.05 | 0.05 | 62 | 1013.2 |
| 20260506222503 | 69 | 252 | 10.0 | 14.0 | 0.00 | 0.05 | 0.05 | 61 | 1013.2 |
| 20260506222004 | 69 | 329 | 1.0 | 8.0 | 0.00 | 0.05 | 0.05 | 62 | 1013.1 |
| 20260506221504 | 69 | 179 | 5.0 | 10.0 | 0.01 | 0.05 | 0.05 | 61 | 1013.0 |
| 20260506221003 | 70 | 212 | 3.0 | 10.0 | 0.01 | 0.05 | 0.05 | 62 | 1012.7 |
| 20260506220503 | 70 | 208 | 4.0 | 8.0 | 0.01 | 0.05 | 0.05 | 61 | 1012.8 |
| 20260506220004 | 70 | 285 | 5.0 | 9.0 | 0.01 | 0.05 | 0.05 | 61 | 1013.0 |
| 20260506215503 | 70 | 265 | 6.0 | 10.0 | 0.01 | 0.05 | 0.05 | 60 | 1012.8 |
| 20260506215004 | 70 | 209 | 4.0 | 12.0 | 0.01 | 0.05 | 0.05 | 61 | 1012.7 |
| 20260506214504 | 70 | 314 | 6.0 | 12.0 | 0.01 | 0.05 | 0.05 | 59 | 1012.6 |
| 20260506214003 | 70 | 330 | 6.0 | 9.0 | 0.01 | 0.05 | 0.05 | 61 | 1012.6 |
| 20260506213504 | 70 | 210 | 7.0 | 12.0 | 0.01 | 0.05 | 0.05 | 61 | 1012.5 |
| 20260506212504 | 69 | 7 | 9.0 | 15.0 | 0.01 | 0.05 | 0.05 | 66 | 1012.5 |
| 20260506212004 | 69 | 65 | 1.0 | 9.0 | 0.01 | 0.05 | 0.05 | 68 | 1012.6 |
| 20260506211004 | 69 | 183 | 5.0 | 10.0 | 0.00 | 0.04 | 0.04 | 71 | 1012.6 |
| 20260506210504 | 68 | 352 | 1.0 | 3.0 | 0.00 | 0.04 | 0.04 | 71 | 1012.5 |
| 20260506210004 | 68 | 44 | 3.0 | 5.0 | 0.00 | 0.04 | 0.04 | 71 | 1012.3 |
| 20260506205503 | 68 | 102 | 3.0 | 6.0 | 0.00 | 0.04 | 0.04 | 71 | 1012.3 |
| 20260506204503 | 69 | 52 | 3.0 | 6.0 | 0.00 | 0.04 | 0.04 | 71 | 1012.5 |
| 20260506204004 | 69 | 33 | 3.0 | 5.0 | 0.00 | 0.04 | 0.04 | 70 | 1012.5 |
| 20260506203504 | 69 | 90 | 7.0 | 9.0 | 0.00 | 0.04 | 0.04 | 66 | 1012.5 |
| 20260506202504 | 69 | 185 | 6.0 | 9.0 | 0.00 | 0.04 | 0.04 | 68 | 1012.8 |
| 20260506201503 | 68 | 115 | 10.0 | 21.0 | 0.00 | 0.04 | 0.04 | 67 | 1012.7 |
| 20260506201004 | 68 | 281 | 5.0 | 8.0 | 0.00 | 0.04 | 0.04 | 68 | 1012.7 |
| 20260506200004 | 68 | 185 | 6.0 | 10.0 | 0.00 | 0.04 | 0.04 | 70 | 1012.7 |
| 20260506195504 | 68 | 141 | 5.0 | 8.0 | 0.00 | 0.04 | 0.04 | 71 | 1012.8 |
| 20260506195004 | 67 | 333 | 10.0 | 14.0 | 0.00 | 0.04 | 0.04 | 69 | 1012.8 |